Miscellaneous Local Product
Issued by NWS Hastings, NE

Home | Current Version | Previous Version | Graphics & Text | Print | Product List | Glossary On
Versions: 1 2 3 4 5 6 7 8 9 10 11 12 13 14 15 16 17 18 19 20 21 22 23 24 25 26 27 28 29 30 31 32 33 34 35 36 37 38 39 40 41 42 43 44 45 46 47 48 49 50
000
AXUS43 KGID 150302
MISGRI

GID CWA HOURLY WEATHER ROUNDUP
NATIONAL WEATHER SERVICE HASTINGS NE
900 PM CST SUN JAN 14 2018

NOTE: "FAIR" INDICATES FEW OR NO CLOUDS BELOW 12,000 FEET WITH NO
SIGNIFICANT WEATHER AND/OR OBSTRUCTIONS TO VISIBILITY.

...SOUTH CENTRAL NEBRASKA...

CITY           SKY/WX    TMP DP  RH WIND       PRES   REMARKS
GRAND ISLAND   CLOUDY    33  29  85 N22       30.18R WCI  21
KEARNEY        NOT AVBL
HASTINGS       CLOUDY    35  29  78 N17       30.16R WCI  25
ORD            CLOUDY    29  22  75 N26G36    30.19R WCI  14
YORK           MIX PCPN  32  32 100 N13G21    30.16R WCI  22
AURORA         CLOUDY    33  29  85 N20       30.17R WCI  21
LEXINGTON      FLURRIES  36  30  77 N24G31    30.20R WCI  25
HOLDREGE       CLOUDY    36  32  85 N14       30.18R WCI  27
HEBRON         CLOUDY    38  32  79 N8        30.16R WCI  32

...NEBRASKA PANHANDLE...

CITY           SKY/WX    TMP DP  RH WIND       PRES   REMARKS
CHADRON        SNOW      25  23  92 NE18      30.29R VSB 1/2 WCI  11
ALLIANCE       LGT SNOW  28  26  92 N22       30.21R FOG     WCI  14
SCOTTSBLUFF    CLOUDY    37  30  75 N13       30.21R WCI  29
SIDNEY         CLOUDY    37  28  70 N12       30.20R WCI  29

...WESTERN AND NORTH CENTRAL NEBRASKA...

CITY           SKY/WX    TMP DP  RH WIND       PRES   REMARKS
VALENTINE      MOCLDY    19  10  68 N22G30    30.27R WCI   2
AINSWORTH      MOCLDY    22  15  76 N26G36    30.24R WCI   5
ONEILL         MIX PCPN  24  20  87 N20G26    30.22R WCI   9
BROKEN BOW     MIX PCPN  31  25  78 N21G28    30.19R WCI  18
IMPERIAL       CLOUDY    39  30  70 N9        30.18R WCI  33
NORTH PLATTE   LGT SNOW  33  31  92 N13       30.21R FOG     WCI  24
MCCOOK         CLOUDY    40  31  70 N13       30.18R WCI  32

...EASTERN NEBRASKA...

CITY           SKY/WX    TMP DP  RH WIND       PRES   REMARKS
NORFOLK        CLOUDY    24  21  88 N16G28    30.18R WCI  11
SO SIOUX CITY  CLOUDY    21  12  68 NW28G37   30.17R WCI   3
TEKAMAH        MIX PCPN  27  18  69 N28G41    30.18R WCI  11
COLUMBUS       CLOUDY    30  24  78 N18G29    30.18R WCI  18
ALBION         MIX PCPN  30  25  82 N18G25    30.18R WCI  18
OMAHA EPPLEY   CLOUDY    31  24  75 N29G38    30.14R WCI  16
OFFUTT AFB     CLOUDY    31  26  79 NW10G22   30.13R WCI  23
MILLARD        CLOUDY    33  26  74 N20G26    30.16R WCI  22
LINCOLN        CLOUDY    34  26  72 N17       30.17R WCI  23
NEBRASKA CITY  CLOUDY    31  31  97 NW13G21   30.14R WCI  22
BEATRICE       CLOUDY    37  33  85 NW9       30.15R WCI  30
FALLS CITY     LGT SNOW  32  26  78 W6        30.14R WCI  26

...NORTHERN KANSAS...

CITY           SKY/WX    TMP DP  RH WIND       PRES   REMARKS
GOODLAND       MOCLDY    30  24  78 W6        30.16S WCI  24
HILL CITY      CLOUDY    45  31  58 W10       30.16F
NORTON         CLOUDY    43  27  52 N16       30.17R
PHILLIPSBURG   PTCLDY    46  32  57 N15G23    30.17R
SMITH CENTER   DRIZZLE   39  32  75 N14       30.17R WCI  31
HAYS           CLOUDY    40  30  67 W7        30.17S
RUSSELL        CLOUDY   N/A N/A N/A W13       30.14S
CONCORDIA      CLOUDY    36  33  89 NW5       30.15R WCI  32
SALINA         CLOUDY    42  32  67 VRB7      30.16R
TOPEKA         CLOUDY    32  28  85 CALM      30.16S



USA.gov is the U.S. government's official web portal to all federal, state and local government web resources and services.